Location: Evansville
(37.9747°N, 87.5558°W)
Time: 18:19:00
(UTC-06:00)

ARIANE 6 FM1 Upper Stage - Pass Details

Date: 19 December 2025
Orbit: 522 x 610 km, 62.0° (Epoch: 13 January)

Event Time Altitude Azimuth Distance (km) Brightness Sun altitude
Exits shadow 05:25:28 25° 343° (NNW) 1,088 3.8 -18.3°
Drops below altitude 10° 05:27:50 10° 14° (NNE) 1,774 5.2 -17.8°
Sets 05:30:13 0° 26° (NNE) 2,659 6.2 -17.4°
